Tracking 30922 objects as of 2-Jul-2025
HD Live streaming from Space Station
objects crossing your sky now

DELTA 1 DEB

Track DELTA 1 DEB now!
10-day predictions


NORAD ID: 18645
Int'l Code: 1973-086GX
Perigee: 1,434.7 km
Apogee: 1,615.5 km
Inclination: 102.3 °
Period: 116.4 minutes
Semi major axis: 7896 km
RCS: 0.0222 m2 (small)
Launch date: November 6, 1973
Source: United States (US)
Launch site: AIR FORCE WESTERN TEST RANGE (AFWTR)

Note: This is SATELLITE DEBRIS
Your satellite tracking list
Your tracking list is empty




NASA's NSSDC Master Catalog

Two Line Element Set (TLE):
1 18645U 73086GX  25181.83417701 -.00000004  00000-0  31527-3 0  9992
2 18645 102.2766 307.0111 0114469   2.9089 149.5575 12.37321619820502
Source of the keplerian elements: AFSPC